Tracking 26544 objects as of 9-Dec-2022
HD Live streaming from Space Station
objects crossing your sky now

STARLINK-4433

Track STARLINK-4433 now!
10-day predictions
STARLINK-4433 is classified as:


NORAD ID: 53478
Int'l Code: 2022-099P
Perigee: 569.8 km
Apogee: 570.5 km
Inclination: 97.7 °
Period: 95.9 minutes
Semi major axis: 6941 km
RCS: Unknown
Launch date: August 12, 2022
Source: United States (US)
Launch site: AIR FORCE WESTERN TEST RANGE (AFWTR)
aabbcc
Your satellite tracking list
Your tracking list is empty




NASA's NSSDC Master Catalog

Two Line Element Set (TLE):
1 53478U 22099P   22342.30110370 -.00001268  00000-0 -94202-4 0  9997
2 53478  97.6550 101.0898 0000523 233.0375 127.0801 15.01255526 18078
Source of the keplerian elements: AFSPC